EDT,Max TemperatureF,Mean TemperatureF,Min TemperatureF,Max Dew PointF,MeanDew PointF,Min DewpointF,Max Humidity, Mean Humidity, Min Humidity, Max Sea Level PressureIn, Mean Sea Level PressureIn, Min Sea Level PressureIn, Max VisibilityMiles, Mean VisibilityMiles, Min VisibilityMiles, Max Wind SpeedMPH, Mean Wind SpeedMPH, Max Gust SpeedMPH,PrecipitationIn, CloudCover, Events, WindDirDegrees
2013-3-1,51,45,39,37,32,29,70,60,44,29.90,29.86,29.82,10,10,10,13,10,,0.00,4,,307
2013-3-2,52,46,37,34,31,29,73,59,43,29.91,29.85,29.79,10,10,10,14,7,,0.00,4,,317
2013-3-3,48,42,35,28,26,23,70,56,39,29.93,29.88,29.83,10,10,7,12,8,,0.00,0,,321
2013-3-4,48,39,30,26,21,16,64,48,30,30.10,30.04,29.94,10,10,10,20,13,25,0.00,0,,300
2013-3-5,60,49,39,54,39,23,83,62,43,30.12,29.97,29.65,10,10,6,17,7,24,0.01,4,Rain,221
2013-3-6,60,51,42,56,38,26,90,68,41,29.89,29.64,29.50,10,9,3,33,25,48,0.09,6,Rain,282
2013-3-7,55,48,41,33,30,28,68,54,37,30.17,30.06,29.91,10,10,10,24,20,36,0.00,1,,334
2013-3-8,54,46,39,31,28,25,63,49,35,30.20,30.15,30.08,10,10,10,23,15,32,0.00,0,,337
2013-3-9,62,50,39,35,31,27,70,51,31,30.30,30.24,30.19,10,10,10,16,12,23,0.00,0,,9
2013-3-10,61,49,37,45,38,29,93,69,31,30.31,30.28,30.25,10,10,6,10,4,,0.00,0,,61
2013-3-11,69,56,45,55,50,43,93,75,50,30.25,30.15,30.01,10,9,6,15,6,23,0.00,5,,114
2013-3-12,64,59,55,61,59,55,100,94,75,29.99,29.90,29.78,10,4,1,20,12,31,1.05,7,Rain,190
2013-3-13,57,52,46,52,40,30,83,64,42,30.05,29.98,29.88,10,10,10,17,11,26,0.00,4,,315
2013-3-14,53,44,37,30,24,21,54,44,32,30.20,30.13,30.06,10,10,10,23,13,29,0.00,1,,318
2013-3-15,55,46,37,44,31,19,69,53,29,30.19,30.10,29.98,10,10,10,23,11,30,0.00,0,,267
2013-3-16,64,59,55,52,50,46,80,72,62,29.95,29.85,29.75,10,9,8,23,17,32,0.00,0,,233
2013-3-17,59,54,48,52,48,42,100,82,64,30.15,30.02,29.86,10,8,2,21,11,31,0.00,6,,53
2013-3-18,66,57,48,55,50,44,96,82,65,30.13,30.04,29.91,10,9,6,16,10,24,0.00,6,,46
2013-3-19,66,60,54,58,53,41,100,86,52,29.97,29.84,29.76,10,8,1,16,7,20,0.35,3,Rain,293
2013-3-20,59,50,44,38,23,13,65,36,18,30.10,29.98,29.81,10,10,10,15,7,16,0.00,3,,14
2013-3-21,55,46,37,35,30,14,86,58,38,29.95,29.76,29.68,10,10,10,18,7,24,0.00,1,,339
2013-3-22,48,40,32,33,21,14,56,45,31,30.09,30.03,29.96,10,10,10,15,11,,0.00,0,,279
2013-3-23,55,50,44,38,32,27,79,55,34,30.04,30.00,29.93,10,10,10,10,5,,0.00,2,,268
2013-3-24,60,51,43,57,48,37,94,87,63,29.94,29.62,29.42,10,7,2,22,9,32,0.39,7,Rain,54
2013-3-25,52,46,42,45,38,26,93,75,48,29.80,29.59,29.49,10,10,6,26,11,31,0.00,7,,286
2013-3-26,51,44,37,33,28,26,68,54,39,30.07,29.93,29.81,10,10,10,16,13,,0.00,3,,287
2013-3-27,57,46,37,33,29,24,73,51,29,30.19,30.12,30.07,10,10,10,20,12,24,0.00,2,,311
2013-3-28,57,46,37,33,28,24,70,49,29,30.25,30.19,30.14,10,10,10,14,10,,0.00,1,,318
2013-3-29,57,47,39,42,32,27,74,55,33,30.32,30.27,30.22,10,10,7,15,8,22,0.00,0,,280
2013-3-30,63,54,46,46,43,39,86,68,44,30.24,30.19,30.14,10,10,10,12,5,,0.00,5,,232
2013-3-31,66,55,46,55,51,42,93,79,65,30.14,29.99,29.88,10,9,6,25,9,32,0.03,4,Rain,199